Location: Asis
(14.1331°N, 120.9056°E)
Time: 02:46:21
(UTC+00:00)

USA 238 DEB - Pass Details

Date: 15 January 2026
Orbit: 883 x 1328 km, 63.4° (Epoch: 10 January)

Event Time Altitude Azimuth Distance (km) Brightness Sun altitude
Rises 11:13:55 0° 340° (NNW) 4,175 6.8 -20.7°
Reaches altitude 10° 11:16:39 10° 342° (NNW) 3,253 6.2 -21.3°
Maximum altitude 11:24:38 70° 65° (ENE) 1,391 4.0 -23.1°
Drops below altitude 10° 11:32:50 10° 148° (SSE) 3,346 6.1 -25.0°
Sets 11:35:42 0° 150° (SSE) 4,301 6.7 -25.7°
